Theta_e
316 315 315 314 315 314 313 313 311 307 306 305 306 306 305 305 303 300 300 300 300 299 299 301 303 303 303 302 303 303 308 309 315 312 312 317 318 317 319 321 321 324 322 321 319 320 322 323 323 326 325 324 329 328
317 316 315 315 314 314 314 314 308 307 305 307 306 306 305 305 303 300 300 300 299 298 295 298 299 300 302 302 302 301 306 309 313 313 307 315 317 313 316 322 315 323 319 323 323 325 323 322 323 322 321 325 326 323
317 317 316 316 315 314 314 310 307 305 304 307 305 306 305 305 304 300 300 299 300 297 296 298 302 305 305 304 303 303 304 307 308 306 307 315 316 311 317 315 313 313 311 322 324 320 317 320 319 321 323 321 321 320
316 316 316 316 316 314 312 307 305 303 302 306 305 305 305 304 303 302 301 300 298 296 299 302 305 305 305 306 305 304 306 305 303 302 306 312 313 310 313 311 312 310 310 313 320 316 316 319 315 320 319 318 319 318
313 315 314 315 314 313 308 305 303 302 303 306 305 305 305 304 303 302 300 299 299 297 304 303 303 305 305 305 305 304 305 306 303 304 304 309 311 310 312 307 309 309 310 313 318 313 313 314 311 317 318 315 315 315
310 311 310 310 311 308 305 303 302 302 303 305 306 306 305 303 302 300 298 301 299 298 301 304 302 304 306 310 306 304 305 303 301 303 304 303 308 309 312 311 306 308 308 308 310 309 311 310 314 316 316 315 314 314
308 307 307 308 307 305 302 302 301 303 303 304 305 304 302 302 300 300 296 302 300 299 304 306 303 302 305 310 308 307 307 304 303 302 302 302 303 306 309 311 307 308 308 308 307 309 311 308 309 314 314 314 312 311
307 306 306 306 305 304 303 302 302 302 303 304 303 302 301 300 299 298 301 299 302 301 298 307 303 304 305 305 311 305 307 305 304 304 301 301 301 305 306 307 308 307 308 307 306 305 305 305 307 313 312 312 311 310
305 304 305 303 303 303 302 302 303 304 303 304 303 300 298 298 296 301 305 304 300 300 306 307 307 304 302 302 301 307 305 309 302 304 303 300 303 307 307 306 307 306 307 307 306 305 304 304 304 306 312 312 308 307
303 303 303 302 303 302 301 303 303 304 304 303 298 300 301 303 305 305 305 303 300 301 304 304 301 306 302 301 300 305 304 307 309 304 300 304 307 307 306 306 305 304 303 304 306 306 304 303 303 302 303 304 304 303
301 301 301 301 301 301 302 303 304 304 302 301 300 301 304 302 304 307 309 307 304 308 306 303 303 303 300 303 302 302 304 307 311 306 306 307 305 308 306 304 303 303 302 302 302 302 302 302 301 300 300 299 299 300
299 299 299 300 300 301 303 304 303 303 301 301 300 300 301 304 308 309 309 307 310 310 306 309 308 303 305 301 305 304 308 309 313 304 306 308 304 305 306 304 303 303 303 302 301 300 299 300 299 298 298 297 296 296
298 299 299 300 299 302 303 303 303 301 299 299 300 302 302 300 307 308 306 307 311 308 310 311 311 309 306 305 305 307 310 309 307 310 310 306 303 305 305 304 303 302 302 301 301 300 299 298 297 296 296 296 295 295
296 298 299 299 300 302 303 303 300 297 297 301 302 300 302 303 302 301 305 304 305 306 308 307 308 307 304 307 306 312 309 309 311 311 310 304 305 303 303 302 300 300 300 300 300 299 299 299 297 296 294 294 294 293
297 297 299 299 301 302 302 300 297 296 300 300 302 303 302 301 301 302 303 304 306 305 306 306 306 306 308 309 307 308 311 313 310 307 304 301 302 303 301 300 299 299 300 300 300 298 298 297 295 294 293 293 291 291
298 298 299 300 301 301 301 297 296 298 301 302 302 300 300 301 302 301 303 304 304 306 307 307 310 309 309 309 311 312 310 306 305 304 301 300 300 299 299 299 300 300 301 300 299 297 296 295 293 291 291 290 290 289
298 300 301 301 301 301 298 297 298 300 301 303 299 298 298 298 299 299 299 302 304 306 309 308 311 313 306 306 309 306 305 303 303 301 299 301 299 297 296 297 298 298 298 299 297 296 295 293 292 291 290 289 289 289
298 301 301 301 300 297 296 298 300 302 301 299 299 298 297 298 299 299 299 301 305 305 306 309 307 308 308 308 305 304 305 300 299 299 297 297 295 297 297 296 298 298 297 297 296 295 293 292 292 290 289 289 289 288
298 300 301 300 299 297 297 299 300 303 303 298 297 297 297 298 297 298 298 301 303 304 305 307 310 306 306 305 306 306 303 301 299 297 296 296 297 297 297 298 298 297 297 296 295 294 293 293 292 290 289 289 288 287
298 300 300 300 298 301 301 301 301 300 300 298 297 298 298 299 298 299 299 303 305 306 309 310 306 307 307 307 306 306 302 299 299 298 296 295 297 298 298 297 297 297 296 295 294 294 292 291 291 290 289 289 288 287
298 300 300 298 298 298 300 301 302 300 297 299 299 299 301 298 300 300 301 303 305 307 308 306 307 305 305 307 307 306 302 301 301 301 299 296 297 298 298 298 297 296 295 294 293 293 293 292 292 290 289 289 289 289
299 299 297 296 298 299 300 299 300 300 302 301 299 299 300 300 300 300 301 305 303 303 303 304 303 304 305 306 307 306 304 303 301 299 298 298 297 296 296 296 296 295 295 295 295 294 294 293 292 290 290 290 290 290
299 298 297 298 300 299 300 298 300 298 301 300 300 303 301 300 300 300 303 302 302 301 301 301 303 305 304 306 306 305 304 303 301 299 298 299 298 299 298 297 298 296 295 296 296 295 294 293 292 291 291 291 290 290
298 298 298 300 300 300 299 300 297 298 300 301 301 303 304 306 306 307 305 303 302 301 301 302 303 302 303 304 304 305 304 304 301 300 299 298 297 298 299 299 299 299 299 299 297 296 294 293 293 291 291 291 290 289
297 299 299 300 299 298 300 300 300 300 302 301 303 303 303 307 310 308 306 303 302 302 302 301 301 302 304 303 303 303 305 304 302 300 300 300 299 298 298 299 299 300 299 298 296 295 294 293 292 291 291 292 291 290
298 299 299 300 301 301 300 302 301 302 301 303 302 302 304 306 307 307 304 302 302 301 301 301 301 301 301 301 302 303 305 305 305 303 302 302 302 301 300 299 298 300 300 300 299 295 293 293 292 292 292 292 292 290
296 299 297 297 299 299 299 300 303 304 303 302 301 303 306 308 308 305 301 300 302 303 306 305 305 303 302 303 306 307 307 307 307 307 307 305 305 305 305 303 302 304 304 303 300 298 295 293 293 295 295 293 292 291
297 297 300 298 298 298 302 303 304 303 303 301 301 306 307 308 305 302 301 303 305 307 306 306 306 307 307 307 307 307 306 307 307 307 306 306 306 306 305 306 306 307 305 303 300 297 296 295 296 299 297 295 292 291
297 296 297 299 300 300 301 303 303 302 302 300 302 305 308 307 301 299 302 303 305 306 303 302 303 306 306 305 306 307 307 306 306 306 306 305 304 305 305 305 305 305 303 301 298 298 297 295 299 301 301 298 295 293
297 296 298 301 303 302 302 301 303 303 304 303 302 303 304 303 302 301 301 302 303 304 304 304 303 304 303 303 301 302 304 305 305 305 304 304 304 304 304 304 303 303 303 300 297 296 296 296 298 299 299 297 295 294
297 297 299 301 302 302 301 302 303 305 305 306 303 303 304 303 302 302 302 302 302 303 303 301 301 302 302 301 301 300 299 302 304 304 304 303 302 301 301 301 302 302 302 300 298 297 296 296 298 298 297 297 297 296
297 299 300 301 302 302 303 303 303 304 305 306 303 301 302 301 301 298 301 301 302 302 302 302 301 300 301 300 300 300 301 300 300 300 300 300 299 298 298 299 299 299 300 301 300 298 297 297 299 298 299 299 299 298
298 299 300 303 303 304 303 304 304 304 304 304 300 301 300 300 301 295 300 300 301 301 301 301 300 300 299 299 299 299 298 297 297 296 296 296 295 295 295 295 295 295 296 297 298 299 300 299 298 299 300 299 300 300
Wind_Speed
32 31 30 31 28 26 26 25 23 22 21 16 14 14 14 13 11 9 9 6 2 3 9 6 5 6 3 2 2 5 7 4 3 7 5 3 2 4 4 3 5 3 4 3 3 2 3 14 8 6 2 6 4 8
32 31 31 30 28 27 27 25 23 22 19 13 12 12 12 13 12 7 4 5 9 5 8 16 27 31 25 18 3 2 3 3 2 3 3 3 2 3 4 3 8 4 3 3 0 1 4 6 5 8 5 3 3 6
33 33 31 30 29 27 27 25 23 21 17 12 10 11 11 12 12 8 11 6 8 4 6 4 5 2 8 22 27 4 3 2 1 0 2 2 2 2 3 2 4 7 7 3 2 5 8 9 10 11 6 6 8 13
34 34 32 30 29 28 25 24 22 19 17 10 10 11 12 12 12 9 11 7 3 4 3 7 9 15 14 9 22 29 3 3 3 1 2 2 2 2 2 2 3 3 9 8 2 8 12 6 12 9 11 11 15 12
32 33 31 28 26 25 23 21 19 18 16 10 9 11 12 12 13 15 19 19 15 4 3 7 22 6 10 7 17 20 12 1 1 2 2 1 1 2 1 1 3 5 4 3 3 6 5 7 14 6 12 6 10 18
28 27 25 23 22 20 19 19 17 16 15 10 10 10 11 12 12 7 3 2 10 13 3 4 5 6 12 7 5 10 7 2 2 2 2 2 0 2 1 1 3 7 6 4 4 11 7 10 9 4 8 9 8 13
21 21 20 19 18 17 15 17 14 14 14 13 11 10 11 10 10 5 3 1 8 13 2 4 5 5 6 2 2 2 3 1 2 2 1 1 2 3 1 1 4 7 5 8 9 7 2 7 5 4 10 12 14 15
19 21 19 17 16 15 15 14 13 12 13 12 11 11 12 10 11 9 2 16 16 2 1 3 4 5 5 3 1 1 2 1 2 2 1 2 2 1 1 4 6 8 1 6 9 8 5 5 9 5 12 14 12 12
21 21 18 15 15 15 13 12 12 11 10 11 12 12 5 4 4 0 5 6 27 1 2 2 2 4 4 2 1 2 1 1 1 1 1 2 2 1 1 3 5 6 5 5 6 9 11 13 12 11 8 11 12 10
22 20 18 18 15 15 12 9 10 9 10 9 7 1 2 5 2 4 3 2 3 3 3 3 1 4 2 3 3 1 2 1 0 2 2 2 2 1 2 3 3 5 7 6 2 6 9 11 12 12 12 9 9 10
19 18 18 14 14 12 10 8 7 8 6 3 3 3 4 3 5 3 2 3 2 3 3 3 5 3 1 1 3 2 2 0 1 2 2 1 2 2 5 6 5 6 10 9 11 11 11 11 11 11 12 14 16 17
18 16 14 13 12 10 7 7 8 6 3 2 4 5 4 0 2 3 3 2 5 4 3 3 4 5 3 3 1 2 1 1 3 3 2 2 3 5 8 8 7 6 10 11 15 13 15 18 17 16 14 15 17 19
16 14 13 11 10 9 9 10 8 6 4 3 1 2 1 1 2 5 5 4 3 3 3 3 2 2 1 1 2 0 1 3 2 1 3 3 4 6 8 8 8 11 13 14 14 17 17 16 17 18 15 16 18 20
16 13 10 9 8 8 11 10 8 5 4 3 4 3 5 4 5 5 4 3 4 2 2 2 2 2 1 1 2 1 0 2 1 2 4 3 9 9 9 9 9 9 8 9 11 13 15 14 13 14 12 11 12 13
15 13 9 10 9 11 12 10 9 7 3 3 3 5 6 4 3 4 4 2 2 1 2 1 2 1 1 2 2 2 1 4 5 4 3 4 9 10 10 9 7 6 5 5 9 10 11 11 11 11 11 11 10 11
13 9 16 10 13 14 12 11 7 5 3 3 5 3 3 1 3 2 2 2 2 2 1 1 2 2 3 2 2 5 3 4 3 3 2 7 9 8 9 8 8 11 9 9 10 10 10 9 9 10 10 11 11 10
11 6 6 14 15 14 14 7 6 4 3 3 4 3 2 3 4 3 3 3 1 3 2 2 2 4 3 1 2 4 4 3 3 2 3 7 10 9 7 8 10 13 14 14 13 12 11 11 10 8 8 7 9 10
9 11 9 15 21 17 8 4 3 3 6 5 3 3 3 3 3 3 3 2 3 2 3 4 3 3 4 3 3 3 2 1 1 3 4 5 6 12 15 11 14 17 17 16 15 14 14 12 9 7 9 9 9 8
12 12 14 22 22 8 6 5 4 3 5 2 3 3 3 3 4 4 3 4 5 3 3 2 3 3 4 3 3 2 3 3 3 2 3 9 17 15 16 19 19 16 18 18 17 15 14 11 9 11 11 12 10 9
17 13 16 24 20 6 5 4 6 3 3 3 2 3 3 4 3 3 3 4 4 3 3 3 5 4 4 3 4 3 3 4 5 4 3 3 14 18 18 18 17 19 17 13 13 15 14 10 10 13 13 12 11 9
14 10 18 24 7 3 1 2 3 3 3 3 2 3 3 1 3 3 4 4 2 4 3 5 4 4 5 3 3 5 6 9 6 6 8 5 9 16 17 17 21 19 15 15 13 12 13 11 13 14 15 13 9 8
10 19 7 7 4 4 2 5 2 3 2 3 2 2 3 2 3 4 3 2 3 4 4 4 4 4 3 3 3 11 10 10 12 16 16 19 6 4 9 17 16 12 15 18 18 16 15 12 13 14 14 12 9 6
15 9 6 5 4 5 3 6 3 3 3 3 1 2 3 2 3 1 2 3 4 4 5 5 5 7 5 4 7 12 17 16 8 11 14 15 16 16 17 20 21 17 13 17 18 15 16 14 14 14 13 12 10 9
9 7 5 5 4 4 2 3 3 3 2 2 2 3 3 3 2 1 3 3 3 1 3 5 5 3 3 5 3 4 13 15 12 12 17 17 10 14 22 23 24 24 22 18 18 17 17 18 17 16 16 14 12 11
5 5 4 4 4 4 4 3 4 3 4 4 3 3 3 2 1 2 3 3 2 2 3 3 3 3 4 3 2 6 14 19 13 6 18 21 16 13 13 16 19 22 20 16 18 20 21 22 21 19 17 18 17 15
4 5 6 9 5 4 4 3 5 7 4 4 5 3 1 3 3 4 3 3 3 3 4 5 4 3 1 3 4 4 13 17 16 8 18 22 23 18 12 7 6 14 22 24 24 23 24 25 23 20 17 18 19 17
5 6 3 2 2 2 2 3 2 0 2 5 3 2 3 2 4 3 2 2 3 5 11 13 13 7 5 7 7 12 16 18 15 15 15 20 18 17 17 15 13 20 17 21 25 26 27 27 26 23 18 17 20 20
3 4 5 5 3 3 2 1 1 6 4 3 1 3 3 3 3 2 2 2 4 12 11 8 6 11 16 15 15 18 15 13 14 17 16 11 8 7 8 10 10 10 10 14 17 20 24 28 31 22 20 20 21 21
3 2 3 4 3 3 4 5 4 3 1 2 2 3 2 1 2 3 4 2 11 18 13 13 11 14 15 14 14 13 20 22 15 6 5 3 3 4 5 3 4 7 8 11 15 16 19 26 29 16 12 18 21 22
3 4 4 5 5 6 4 4 3 2 2 3 1 2 2 2 7 6 1 4 11 10 13 15 19 19 13 13 11 11 11 12 9 10 5 4 7 8 7 7 6 6 5 9 15 17 19 23 25 16 11 14 18 20
3 4 3 4 4 4 5 3 1 2 2 3 1 1 2 2 1 8 7 4 6 13 16 12 9 15 17 14 12 10 4 5 5 6 6 10 13 10 8 6 5 5 7 13 16 18 19 23 24 22 18 20 20 21
3 5 4 4 3 1 2 3 3 2 3 3 3 1 1 2 1 3 8 4 8 9 13 17 15 9 11 12 9 8 11 16 15 14 14 13 11 8 5 4 3 2 2 4 11 17 23 25 23 23 23 24 21 20
2 2 3 3 2 3 2 2 1 1 1 3 2 3 1 4 3 2 2 2 3 7 13 12 11 14 14 13 15 19 18 17 14 12 9 7 5 3 1 1 1 1 2 3 5 6 9 17 22 21 22 22 24 23
Wind_Direction
290 293 298 304 307 305 304 305 311 314 316 317 323 321 324 322 324 322 299 262 231 264 279 243 217 199 266 161 240 302 340 349 347 19 9 341 323 360 311 21 339 22 354 349 329 15 59 360 353 60 178 297 143 135
285 288 293 298 304 303 301 304 308 312 314 308 314 315 315 314 316 307 285 233 294 223 260 280 268 259 248 242 141 275 242 275 323 351 352 308 334 336 314 349 336 34 8 312 105 358 357 356 320 304 252 227 113 111
282 282 284 289 293 294 298 302 304 307 309 303 313 308 303 304 307 282 285 286 290 284 289 310 256 320 271 240 221 190 258 249 349 181 199 292 339 346 342 21 290 340 15 323 306 4 344 22 354 13 56 103 101 119
275 280 281 283 287 289 294 298 301 304 307 294 308 307 300 300 300 284 273 268 265 281 287 281 315 300 291 267 206 212 209 56 98 71 84 318 329 67 323 14 6 319 311 321 332 358 335 32 1 8 50 89 98 103
277 274 275 275 278 284 290 294 297 302 305 292 305 306 301 298 294 289 283 272 236 211 285 290 311 295 308 274 234 223 206 129 36 30 52 333 330 333 321 88 5 333 337 350 335 343 306 301 318 309 90 61 108 119
277 269 264 263 272 278 282 290 297 302 304 291 296 289 292 296 297 317 316 312 199 199 284 305 294 292 316 24 136 148 157 152 131 133 191 299 29 323 332 79 285 329 338 340 310 304 292 316 338 61 91 92 108 114
274 264 260 266 272 273 279 288 294 295 298 300 288 280 289 287 277 223 226 100 150 188 267 296 302 277 305 303 82 109 145 157 127 136 111 155 356 353 336 77 315 317 336 350 0 324 270 357 315 31 97 101 106 109
270 267 269 273 267 265 270 278 288 290 296 294 286 289 289 279 277 276 234 201 196 249 276 279 279 329 2 318 5 22 137 82 26 145 77 94 347 15 9 326 335 344 320 28 30 31 23 0 32 84 107 112 114 118
274 270 273 262 261 267 269 271 271 275 292 288 291 292 278 212 215 92 30 184 195 300 279 230 272 275 346 301 290 355 79 101 311 94 6 92 331 339 25 321 5 357 2 34 48 47 38 40 33 29 104 118 110 106
268 266 261 260 262 265 269 266 275 281 274 292 294 200 257 214 131 179 250 127 164 230 233 243 201 266 52 354 304 344 20 159 237 256 95 36 276 150 121 86 51 49 37 20 42 50 58 52 43 40 49 67 90 109
263 262 258 251 251 256 265 263 257 252 270 240 212 219 282 272 162 200 231 204 177 235 219 235 195 226 260 178 264 189 224 206 349 259 120 298 280 156 125 104 88 80 76 68 71 66 59 63 68 56 57 62 72 80
254 250 247 243 248 259 258 249 234 210 206 220 282 292 288 273 180 247 215 231 204 229 215 202 219 198 252 148 124 266 253 86 254 144 77 254 239 148 138 132 121 98 87 82 79 80 66 62 61 64 59 64 73 80
245 241 240 240 247 263 255 226 222 211 230 247 250 289 73 265 194 212 205 231 230 199 210 201 239 198 330 111 236 305 291 245 117 1 246 229 158 138 129 125 105 100 93 89 86 86 91 81 71 66 54 55 66 70
239 240 244 245 251 252 214 216 201 194 188 194 165 253 198 208 230 203 198 202 243 222 207 182 240 166 202 297 191 220 281 109 305 263 241 186 168 148 142 135 135 146 144 126 117 109 105 100 92 82 79 73 74 80
237 240 228 237 230 205 206 202 180 187 205 231 177 227 217 232 257 238 232 252 239 175 115 38 5 58 276 294 217 113 171 245 211 230 238 172 157 156 150 155 162 169 168 148 131 116 112 112 108 102 101 98 98 104
231 235 232 222 197 197 189 173 175 184 243 237 232 257 240 323 277 268 247 254 197 147 114 40 20 342 252 206 169 223 167 227 253 225 199 143 149 156 156 161 177 178 171 155 137 131 125 119 113 105 95 90 101 114
214 217 209 191 191 180 169 153 185 200 227 233 248 220 216 261 233 243 216 252 117 99 186 122 181 225 309 280 247 186 202 221 238 227 161 159 156 153 146 151 160 151 149 148 136 133 127 133 125 105 86 85 96 98
214 192 187 187 169 145 168 210 232 224 233 233 235 233 199 219 220 234 234 205 133 198 146 203 151 198 223 221 261 248 227 37 25 149 146 130 127 141 152 146 149 148 143 146 146 143 145 144 139 130 131 129 117 115
207 191 197 185 169 144 160 204 230 250 241 222 247 221 220 241 229 232 210 190 203 181 141 145 183 219 236 228 234 246 195 186 164 147 121 143 151 153 151 150 147 146 147 150 156 157 164 170 168 157 146 150 141 150
209 204 204 193 168 182 181 204 195 241 255 238 232 230 214 217 222 210 207 172 161 161 167 201 213 220 199 223 204 221 175 150 135 109 109 131 152 150 153 152 153 155 146 146 147 150 149 143 158 165 162 161 158 171
212 200 194 177 198 298 252 247 201 220 246 245 240 196 252 243 232 207 213 165 171 178 212 223 226 233 228 237 200 169 147 164 171 160 165 157 167 157 155 163 161 158 151 161 159 171 176 176 171 172 173 174 171 169
151 151 124 166 195 209 257 225 254 305 246 253 283 208 257 256 233 221 149 167 210 214 196 196 212 215 217 213 188 186 161 148 124 114 126 134 141 139 155 164 155 161 173 185 187 185 188 178 173 175 179 177 171 185
135 126 125 159 204 179 232 163 210 222 226 247 317 261 239 244 230 139 226 211 233 220 201 199 212 213 193 185 144 149 161 154 146 146 152 157 162 168 168 177 181 173 187 208 208 198 188 183 180 179 180 183 180 188
123 146 179 170 190 190 193 208 216 245 249 253 229 254 259 220 163 229 253 234 237 197 179 193 152 111 75 113 143 164 164 168 140 143 161 147 148 173 187 190 198 205 209 213 206 203 194 189 185 184 185 183 180 181
151 181 185 172 165 198 205 213 197 195 235 212 217 263 266 147 247 237 234 258 215 198 190 157 148 146 144 150 120 148 172 170 155 157 176 180 167 163 187 206 213 220 219 207 198 198 195 193 190 189 189 194 189 190
200 178 192 177 170 201 206 218 198 200 189 189 236 242 161 177 218 244 235 214 197 175 174 166 150 129 135 174 142 163 180 182 174 155 184 190 189 179 183 182 194 227 228 232 223 196 188 188 182 184 193 201 200 198
182 194 202 261 160 176 253 248 119 106 221 208 229 230 164 233 245 255 286 225 185 187 172 173 166 162 161 156 165 182 178 174 181 191 191 196 205 212 210 198 205 241 248 229 227 214 190 179 179 188 198 202 206 207
226 176 182 176 190 209 267 274 214 191 206 222 147 206 200 208 261 269 242 276 183 148 158 156 163 168 156 149 143 135 133 147 141 137 133 137 163 189 211 226 233 249 251 233 217 209 201 188 180 191 198 201 207 210
203 209 146 195 203 196 215 192 216 244 223 140 194 221 160 50 330 308 323 247 156 146 120 112 112 137 134 128 134 144 148 146 132 131 129 137 132 104 136 141 196 197 204 205 206 205 199 188 181 181 206 206 210 212
221 163 185 200 182 208 226 185 214 237 168 147 156 339 26 64 358 355 360 158 156 145 148 149 146 139 136 125 116 113 151 170 189 170 151 169 177 159 155 151 156 168 194 206 194 191 193 189 189 202 213 202 205 211
171 174 216 186 216 212 217 186 181 274 81 1 45 198 157 155 52 30 44 65 146 145 140 136 138 149 145 146 142 132 103 102 155 171 172 149 147 143 138 137 147 163 186 201 199 194 189 186 195 213 219 214 213 215
173 185 189 176 229 234 99 138 171 190 182 163 216 149 156 80 38 309 9 78 137 128 150 158 152 154 156 141 129 123 134 125 116 115 118 120 121 122 125 125 125 134 159 182 204 209 202 199 198 201 211 222 225 226
180 190 211 171 141 154 100 95 58 65 250 182 204 167 147 142 169 237 11 33 179 169 154 156 155 156 154 144 134 130 129 123 119 114 110 103 92 78 37 354 324 288 238 224 216 206 206 218 217 217 215 215 219 213